Regional Weather Roundup
Issued by NWS

Home | Current Version | Previous Version | Graphics & Text | Print | Product List | Glossary On
Versions: 1 2 3 4 5 6 7 8 9 10 11 12 13 14 15 16 17 18 19 20 21 22 23 24 25 26 27 28 29 30 31 32 33 34 35 36 37 38 39 40 41 42 43 44 45 46 47 48 49 50
874
ASUS45 KBOU 190507
RWRCO

WEATHER ROUNDUP FOR COLORADO
NATIONAL WEATHER SERVICE DENVER/BOULDER CO
1000 PM MST SAT FEB 18 2017

NOTE: "FAIR" INDICATES FEW OR NO CLOUDS BELOW 12000 FEET WITH NO
SIGNIFICANT WEATHER AND/OR OBSTRUCTIONS TO VISIBILITY.

COZ001>005-013-030-031-190600-
...NORTHWEST COLORADO...

CITY           SKY/WX    TMP DP  RH WIND       PRES   REMARKS
CRAIG          MOCLDY    30  27  88 CALM      29.77F
HAYDEN         FAIR      36  28  75 CALM      29.77S
MEEKER         FAIR      31  28  89 CALM      29.76S
MOUNT WERNER   NOT AVBL
STEAMBOAT SPGS FAIR      34  29  81 SE3       29.77F
WALDEN         NOT AVBL
$$

COZ006>008-011-190600-
...WEST CENTRAL VALLEYS...

CITY           SKY/WX    TMP DP  RH WIND       PRES   REMARKS
GRAND JUNCTION FAIR      39  37  92 E7        29.73S
MONTROSE       FAIR      36  32  85 CALM      29.77S
EAGLE          CLEAR     36  28  75 CALM      29.79R
RIFLE          FAIR      37  32  82 SE3       29.75S
DELTA          FAIR      40  37  86 N7        29.75S
NUCLA          MOCLDY    39  34  81 E5        29.77S
$$

COZ017>023-064>068-190600-
...SOUTHWEST COLORADO...

CITY           SKY/WX    TMP DP  RH WIND       PRES   REMARKS
DURANGO        MOCLDY    40  29  64 E7        29.80R
CORTEZ         CLOUDY    50  30  46 SE18      29.74R
PAGOSA SPRINGS FAIR      36  29  75 CALM      29.84F
TELLURIDE      MOCLDY    40  16  37 SE7       29.83S
WOLF CREEK PAS MOCLDY    23  23 100 S18G25    29.97S WCI   9
$$

COZ009-010-012-014-032>034-037-058>063-190600-
...CENTRAL COLORADO...

CITY           SKY/WX    TMP DP  RH WIND       PRES   REMARKS
ASPEN          FAIR      31  26  82 VRB3      29.77F
BUENA VISTA    FAIR      34  28  79 SW5       29.80R WCI  30
COPPER MTN     FAIR      34  19  55 MISG      29.89F
BERTHOUD PASS  FAIR      25  14  63 SW15G30   29.89F WCI  12
COTTONWOOD PAS FAIR      41  23  48 CALM      29.85S
GUNNISON       FAIR      25  22  88 NE6       29.82R WCI  18
KREMMLING      FAIR      36  32  87 CALM      29.79R
LEADVILLE      FAIR      28  20  71 CALM      29.82S
MONARCH PASS   MOCLDY    28  23  80 SW25G31   30.02S WCI  14
SALIDA         FAIR      47  30  51 SW13G24   29.85R
SUNLIGHT       NOT AVBL
WILKERSON PASS FAIR      30  21  69 SW7G16    29.91F WCI  23
$$

COZ069>075-190600-
...SAN LUIS VALLEY/SANGRE DE CRISTO MOUNTAINS...

CITY           SKY/WX    TMP DP  RH WIND       PRES   REMARKS
ALAMOSA        MOCLDY    35  31  85 SE8       29.82R WCI  29
LA VETA PASS   FAIR      34  23  64 NE16G25   29.89S WCI  23
SAGUACHE       MOCLDY    37  32  81 SE12      29.82R
$$

COZ035-036-038>040-190600-
...NORTHERN COLORADO FRONT RANGE...

CITY           SKY/WX    TMP DP  RH WIND       PRES   REMARKS
DENVER INTL AP MOCLDY    46  20  35 S9        29.67F
DMNS CITY PARK   N/A     47  21  34 N2        29.66F
AURORA         MOCLDY    47  22  37 S13       29.68S
FRONT RANGE AP NOT AVBL
ERIE MUNI ARPT FAIR      34  22  61 CALM      29.67S
BOULDER MUN AP FAIR      45  23  42 SW5       29.67F
CENTENNIAL     MOCLDY    46  22  38 E5        29.68F
BROOMFIELD     MOCLDY    50  21  32 CALM      29.68F
FORT COLLINS   FAIR      40  22  48 NW3       29.67S
LONGMONT       FAIR      40  24  52 W6        29.68F
$$

COZ041-046-047-076>085-087-088-190600-
...PIKES PEAK/PALMER DIVIDE AND SOUTHERN FOOTHILLS...

CITY           SKY/WX    TMP DP  RH WIND       PRES   REMARKS
COLO. SPRINGS  MOCLDY    45  19  35 E9        29.74S
A. F. ACADEMY  FAIR      35  19  51 N5        29.73S WCI  31
SCHRIEVER AFB  FAIR      43  19  37 SW5       29.74R
ELLICOTT       FAIR     N/A N/A N/A S14       29.72S
FALCON         NOT AVBL
FORT CARSON    FAIR      42  21  44 NW7       29.71S
LIMON          FAIR      40  22  48 E8        29.73R
MONUMENT HILL  FAIR      36  19  51 SW7       29.75F
TRINIDAD       FAIR      52  22  30 SW20      29.74F
$$

COZ042>045-048>051-090-091-190600-
...NORTHEAST COLORADO...

CITY           SKY/WX    TMP DP  RH WIND       PRES   REMARKS
GREELEY ARPT   FAIR      42  23  46 S6        29.66F
AKRON          FAIR      47  22  37 S15       29.69F
BURLINGTON     FAIR      49  28  44 S13       29.73S
WRAY           NOT AVBL
STERLING       NOT AVBL
HOLYOKE        FAIR      45  30  57 SE7       29.71F
FORT MORGAN    FAIR      45  20  37 NE3       29.68S
$$

COZ086-089-092>099-190600-
...SOUTHEAST COLORADO...

CITY           SKY/WX    TMP DP  RH WIND       PRES   REMARKS
PUEBLO         FAIR      45  25  45 S3        29.68R
LA JUNTA       FAIR      58  26  29 S17       29.71R
LAMAR          FAIR      57  29  34 S17G26    29.71R
SPRINGFIELD      N/A     48  32  53 S16       29.78R
$$




USA.gov is the U.S. government's official web portal to all federal, state and local government web resources and services.